1508670000.55,38765,12.75,73450.0,3.07,0.83,2.25,0,*48
1508670001.81,38766,12.75,73450.0,3.07,-0.23,1.29,0,*63
1508670003.02,38767,12.81,73446.0,3.05,0.17,1.67,0,*40
1508670004.24,38768,12.75,73448.5,3.05,0.17,1.67,0,*4F
1508670005.45,38769,12.75,73454.5,3.05,0.33,1.67,0,*48
1508670006.7,38770,12.75,73450.3,3.07,0.75,2.09,0,*4B
1508670007.94,38771,12.75,73448.8,3.07,0.79,2.21,0,*4C
1508670009.16,38772,12.75,73452.3,3.05,0.63,1.97,0,*48
1508670010.38,38773,12.75,73448.5,3.05,0.75,2.13,0,*41
1508670011.61,38774,12.75,73448.8,3.05,0.83,2.21,0,*4E
1508670012.86,38775,12.75,73446.0,3.07,0.79,2.09,0,*42
1508670014.11,38776,12.75,73440.0,3.07,0.79,2.09,0,*41
1508670015.35,38777,12.75,73446.3,3.07,0.63,1.97,0,*4F
1508670016.6,38778,12.75,73444.3,3.07,0.75,2.13,0,*48
1508670017.82,38779,12.75,73444.3,3.07,0.41,1.75,0,*4D
1508670019.06,38780,12.75,73448.8,3.07,0.75,2.13,0,*4F
1508670020.28,38781,12.75,73444.3,3.05,0.63,2.01,0,*48
1508670021.5,38782,12.75,73448.3,3.07,0.33,1.79,0,*40
1508670022.75,38783,12.81,73452.0,3.07,0.79,2.21,0,*41
1508670023.99,38784,12.75,73442.8,3.07,0.75,2.09,0,*40
1508670025.21,38785,12.75,73442.3,3.07,0.43,1.85,0,*43
1508670026.42,38786,12.75,73450.5,3.09,0.21,1.51,0,*43
1508670027.61,38787,12.75,73450.5,3.07,0.09,1.41,0,*77
1508670028.86,38788,12.75,73448.8,3.07,0.75,2.09,0,*4C
1508670030.1,38789,12.75,73448.8,3.07,0.95,2.25,0,*4D
1508670031.35,38790,12.75,73450.8,3.07,0.63,2.09,0,*42
1508670032.59,38791,12.75,73454.5,3.07,0.75,2.09,0,*44
1508670033.83,38792,12.75,73454.3,3.07,1.25,2.61,0,*7D
1508670035.08,38793,12.75,73452.0,3.07,1.85,3.23,0,*71
1508670036.32,38794,12.81,73452.3,3.13,1.33,2.77,0,*7E
1508670037.58,38795,12.75,73452.5,3.11,1.33,2.85,0,*70
1508670038.84,38796,12.75,73454.8,3.11,1.09,2.73,0,*73
1508670040.07,38797,12.75,73452.3,3.11,1.33,2.95,0,*73
1508670041.31,38798,12.75,73454.8,3.11,1.67,3.23,0,*71
1508670042.57,38799,12.75,73458.0,3.15,1.55,3.11,0,*74
1508670043.79,38800,12.75,73456.3,3.15,1.01,2.59,0,*77
1508670045.04,38801,12.75,73454.3,3.15,0.91,2.55,0,*42
1508670046.27,38802,12.75,73454.0,3.15,1.25,2.99,0,*7F
1508670047.5,38803,12.75,73454.5,3.15,1.75,3.41,0,*7F
1508670048.75,38804,12.75,73454.8,3.19,2.05,3.71,0,*73
1508670050.0,38805,12.75,73458.5,3.19,1.67,3.33,0,*73
1508670051.23,38806,12.81,73458.0,3.21,1.55,3.23,0,*7B
1508670052.46,38807,12.81,73456.3,3.21,1.09,2.85,0,*7E
1508670053.7,38808,12.81,73458.5,3.21,1.09,2.89,0,*7D
1508670054.89,38809,12.75,73452.3,3.25,0.97,2.59,0,*43
1508670056.07,38810,12.75,73448.3,3.25,1.01,2.65,0,*7A
1508670057.28,38811,12.75,73448.5,3.25,1.01,2.59,0,*74
1508670058.5,38812,12.75,73448.0,3.25,0.87,2.55,0,*44
1508670059.72,38813,12.75,73448.0,3.25,0.75,2.51,0,*4C
1508670060.91,38814,12.75,73450.5,3.25,0.71,2.27,0,*4E
1508670062.13,38815,12.81,73454.8,3.21,0.79,2.39,0,*4C
1508670063.35,38816,12.81,73454.5,3.25,0.75,2.43,0,*4A
1508670064.53,38817,12.75,73452.0,3.21,0.43,2.21,0,*4E
1508670065.73,38818,12.81,73458.5,3.21,-0.07,1.55,0,*5C
1508670066.92,38819,12.81,73452.8,3.21,-0.07,1.67,0,*5C
1508670068.11,38820,12.81,73458.0,3.21,0.05,1.71,0,*7E
1508670069.33,38821,12.75,73456.0,3.21,0.37,2.05,0,*4E
1508670070.56,38822,12.75,73452.8,3.19,0.37,2.05,0,*46
1508670071.78,38823,12.81,73458.3,3.19,-0.03,1.71,0,*5D
1508670073.03,38824,12.81,73458.0,3.19,0.47,2.17,0,*44
1508670074.29,38825,12.75,73454.5,3.19,1.09,2.89,0,*79
1508670075.55,38826,12.75,73452.8,3.19,1.33,3.11,0,*73
1508670076.78,38827,12.75,73456.5,3.21,1.21,3.07,0,*7D
1508670077.98,38828,12.75,73452.5,3.21,-0.03,1.71,0,*5D
1508670079.17,38829,12.75,73450.8,3.21,-0.61,1.17,0,*68
1508670080.38,38830,12.75,73456.5,3.17,0.17,1.97,0,*41
1508670081.61,38831,12.75,73456.3,3.19,0.79,2.61,0,*4C
1508670082.83,38832,12.81,73456.0,3.17,0.63,2.59,0,*41
1508670084.04,38833,12.75,73454.8,3.19,0.43,2.47,0,*43
1508670085.27,38834,12.75,73454.3,3.17,0.51,2.51,0,*4E
1508670086.51,38835,12.81,73458.5,3.19,0.33,2.47,0,*42
1508670087.71,38836,12.75,73454.3,3.21,0.59,2.61,0,*42
1508670088.93,38837,12.81,73456.3,3.21,0.95,3.07,0,*42
1508670090.13,38838,12.75,73456.5,3.21,1.05,3.19,0,*7A
1508670091.32,38839,12.75,73454.0,3.21,0.95,2.99,0,*4A
1508670092.54,38840,12.75,73452.8,3.25,0.51,2.69,0,*47
1508670093.74,38841,12.81,73456.3,3.21,0.55,2.61,0,*4E
1508670094.95,38842,12.75,73452.3,3.25,-0.11,2.05,0,*66
1508670096.14,38843,12.81,73454.8,3.21,-0.45,1.71,0,*62
1508670097.31,38844,12.81,73452.3,3.21,0.05,2.27,0,*7C
1508670098.5,38845,12.75,73448.0,3.21,0.43,2.77,0,*4A
1508670099.69,38846,12.75,73450.3,3.25,-0.37,1.93,0,*6A
1508670100.89,38847,12.81,73452.3,3.21,-0.41,1.89,0,*65
1508670102.11,38848,12.75,73450.5,3.21,0.25,2.47,0,*44
1508670103.34,38849,12.81,73454.5,3.21,0.55,2.77,0,*41
1508670104.55,38850,12.75,73448.0,3.25,0.13,2.21,0,*4C
1508670105.74,38851,12.81,73454.8,3.21,0.09,2.25,0,*76
1508670106.94,38852,12.75,73450.5,3.21,-0.41,1.67,0,*61
1508670108.16,38853,12.81,73452.3,3.19,-0.03,2.01,0,*5E
1508670109.41,38854,12.75,73454.8,3.19,0.79,2.77,0,*48
1508670110.61,38855,12.81,73456.0,3.21,0.67,2.61,0,*4A
1508670111.8,38856,12.75,73452.8,3.21,0.09,2.13,0,*74
1508670113.02,38857,12.75,73450.3,3.19,-0.49,1.43,0,*61
1508670114.22,38858,12.75,73450.0,3.17,-1.59,0.41,0,*63
1508670115.44,38859,12.75,73454.0,3.15,-0.49,1.55,0,*64
1508670116.67,38860,12.75,73452.5,3.15,0.29,2.47,0,*45
1508670117.92,38861,12.81,73454.0,3.15,0.47,2.59,0,*43
1508670119.14,38862,12.81,73454.3,3.17,0.21,2.43,0,*49
1508670120.33,38863,12.81,73454.0,3.17,0.05,2.09,0,*70
1508670121.52,38864,12.81,73458.0,3.17,0.05,2.01,0,*7F
1508670122.71,38865,12.75,73450.5,3.17,0.09,1.97,0,*7E
1508670123.9,38866,12.75,73454.0,3.17,0.43,2.47,0,*4D
1508670125.14,38867,12.81,73454.0,3.15,0.29,2.09,0,*48
1508670126.38,38868,12.81,73452.5,3.15,0.29,2.09,0,*47
1508670127.61,38869,12.81,73450.0,3.15,0.17,1.97,0,*4F
1508670128.85,38870,12.81,73450.3,3.15,-0.27,1.47,0,*64
1508670130.05,38871,12.81,73452.5,3.15,-0.03,1.75,0,*52
1508670131.23,38872,12.81,73450.5,3.15,0.01,1.83,0,*77
1508670132.45,38873,12.81,73452.0,3.13,-0.27,1.59,0,*6E
1508670133.64,38874,12.75,73448.8,3.13,0.05,1.97,0,*76
1508670134.83,38875,12.75,73450.0,3.13,0.05,2.05,0,*7F
1508670136.03,38876,12.75,73450.3,3.13,-0.37,1.71,0,*60
1508670137.23,38877,12.75,73448.5,3.13,-0.49,1.59,0,*62
1508670138.42,38878,12.75,73448.5,3.13,0.05,2.17,0,*71
1508670139.64,38879,12.81,73452.3,3.13,0.37,2.47,0,*44
1508670140.87,38880,12.81,73456.3,3.13,0.91,3.03,0,*4F
1508670142.07,38881,12.75,73454.0,3.13,-0.03,2.05,0,*5F
1508670143.26,38882,12.81,73452.3,3.13,-0.49,1.59,0,*68
1508670144.46,38883,12.81,73456.5,3.13,-0.27,1.75,0,*6F
1508670145.64,38884,12.81,73452.5,3.13,-0.45,1.75,0,*6C
1508670146.84,38885,12.81,73452.8,3.13,-0.45,1.71,0,*69
1508670148.06,38886,12.81,73454.3,3.09,-0.27,1.89,0,*62
1508670149.28,38887,12.75,73450.3,3.11,-0.19,1.93,0,*6C
1508670150.48,38888,12.81,73452.3,3.11,-0.19,1.83,0,*62
1508670151.7,38889,12.81,73448.5,3.11,0.09,2.05,0,*72
1508670152.89,38890,12.81,73452.8,3.09,-0.29,1.51,0,*6E
1508670154.07,38891,12.81,73458.3,3.09,0.01,1.71,0,*7A
1508670155.28,38892,12.75,73450.3,3.09,0.25,1.93,0,*43
1508670156.48,38893,12.75,73448.5,3.09,0.79,2.35,0,*44
1508670157.7,38894,12.81,73450.8,3.09,0.55,2.17,0,*4D
1508670158.9,38895,12.81,73450.8,3.09,0.79,2.35,0,*42
1508670160.15,38896,12.75,73448.3,3.11,0.87,2.39,0,*45
1508670161.37,38897,12.81,73454.3,3.11,1.43,2.95,0,*7B
1508670162.61,38898,12.75,73444.3,3.11,0.59,2.17,0,*44
1508670163.85,38899,12.81,73448.3,3.11,0.25,1.71,0,*4D
1508670165.03,38900,12.75,73450.0,3.09,0.09,1.59,0,*71
1508670166.25,38901,12.75,73450.8,3.07,0.29,1.79,0,*4E
1508670167.47,38902,12.81,73452.0,3.07,-0.07,1.55,0,*52
1508670168.69,38903,12.81,73454.3,3.07,-0.03,1.47,0,*54
1508670169.89,38904,12.81,73454.5,3.05,0.83,2.35,0,*42
1508670171.15,38905,12.75,73452.3,3.07,1.17,2.69,0,*74
1508670172.4,38906,12.81,73456.5,3.07,0.51,2.01,0,*4A
1508670173.64,38907,12.81,73456.5,3.07,0.33,1.85,0,*40
1508670174.89,38908,12.75,73452.5,3.07,0.55,2.09,0,*48
1508670176.14,38909,12.81,73456.3,3.07,0.51,1.97,0,*49
1508670177.36,38910,12.75,73454.8,3.05,0.21,1.51,0,*4E
1508670178.58,38911,12.81,73454.8,3.05,0.21,1.55,0,*4B
1508670179.8,38912,12.81,73452.5,3.05,0.29,1.63,0,*45
1508670181.01,38913,12.81,73452.0,3.01,0.13,1.47,0,*4F
1508670182.21,38914,12.81,73450.3,3.01,-0.11,1.43,0,*63
1508670183.43,38915,12.81,73450.8,2.97,-0.03,1.33,0,*58
1508670184.66,38916,12.81,73452.3,2.97,-0.03,1.47,0,*58
1508670185.87,38917,12.81,73452.3,2.97,0.01,1.67,0,*74
1508670187.07,38918,12.81,73452.8,3.01,-0.11,1.59,0,*64
1508670188.32,38919,12.81,73452.8,2.97,-0.27,1.55,0,*62
1508670189.53,38920,12.81,73452.5,2.97,0.01,1.93,0,*7B
1508670190.78,38921,12.81,73452.3,2.97,-0.27,1.67,0,*68
1508670192.01,38922,12.81,73452.0,2.97,-0.53,1.55,0,*69
1508670193.21,38923,12.81,73450.5,2.95,-0.45,1.55,0,*6D
1508670194.41,38924,12.81,73454.0,2.93,-0.29,1.75,0,*64
1508670195.61,38925,12.81,73454.3,2.95,-0.15,1.85,0,*63
1508670196.83,38926,12.81,73454.3,2.93,-0.07,1.85,0,*55
1508670198.06,38927,12.81,73454.3,2.93,0.17,1.89,0,*44
1508670199.27,38928,12.81,73450.3,2.93,0.05,1.67,0,*78
1508670200.49,38929,12.75,73448.5,2.93,0.05,1.63,0,*7D
1508670201.65,38930,12.81,73452.0,2.95,0.05,1.75,0,*74
1508670202.88,38931,12.81,73454.8,2.93,-0.15,1.63,0,*68
1508670204.07,38932,12.81,73452.0,2.93,0.05,1.75,0,*70
1508670205.29,38933,12.81,73452.8,2.93,-0.15,1.85,0,*62
1508670206.53,38934,12.81,73454.3,2.93,-0.23,1.89,0,*6C
1508670207.78,38935,12.81,73450.8,2.93,-0.23,1.89,0,*6D
1508670208.97,38936,12.81,73452.3,2.95,-0.45,1.67,0,*68
1508670210.17,38937,12.81,73450.5,2.93,-0.45,1.75,0,*6C
1508670211.4,38938,12.81,73448.0,2.93,-0.81,1.37,0,*6D
1508670212.63,38939,12.81,73458.8,2.91,-0.93,1.33,0,*69
1508670213.82,38940,12.81,73450.5,2.91,-1.21,1.01,0,*5E
1508670215.08,38941,12.81,73454.0,2.89,-0.97,1.33,0,*6B
1508670216.29,38942,12.81,73450.0,2.89,-1.25,1.05,0,*55
1508670217.52,38943,12.81,73450.5,2.87,-0.97,1.33,0,*67
1508670218.73,38944,12.81,73450.8,2.87,-0.73,1.37,0,*6E
1508670219.94,38945,12.81,73448.3,2.87,-0.73,1.29,0,*60
1508670221.17,38946,12.81,73448.3,2.85,-0.77,1.25,0,*69
1508670222.4,38947,12.75,73446.0,2.85,-0.65,1.29,0,*67
1508670223.63,38948,12.81,73450.3,2.85,-0.69,1.13,0,*6D
1508670224.88,38949,12.81,73444.3,2.85,-0.27,1.51,0,*60
1508670226.1,38950,12.81,73446.0,2.85,-0.07,1.51,0,*5A
1508670227.32,38951,12.81,73450.3,2.85,-0.07,1.51,0,*5B
1508670228.55,38952,12.81,73446.0,2.85,-0.03,1.51,0,*5C
1508670229.74,38953,12.81,73450.8,2.83,0.05,1.43,0,*73
1508670230.93,38954,12.75,73444.5,2.83,0.43,1.97,0,*4F
1508670232.12,38955,12.81,73446.5,2.83,-0.03,1.43,0,*5E
1508670233.32,38956,12.81,73446.0,2.83,-0.03,1.29,0,*51
1508670234.51,38957,12.81,73446.0,2.81,0.05,1.41,0,*77
1508670235.75,38958,12.81,73444.8,2.81,-0.29,1.09,0,*67
1508670237.0,38959,12.81,73448.8,2.81,-0.85,0.51,0,*5C
1508670238.21,38960,12.81,73448.5,2.79,-0.73,0.63,0,*59
1508670239.38,38961,12.81,73452.0,2.79,-0.29,0.97,0,*5C
1508670240.6,38962,12.81,73452.0,2.75,0.59,2.01,0,*44
1508670241.81,38963,12.81,73458.0,2.75,1.05,2.55,0,*7C
1508670243.03,38964,12.81,73452.5,2.79,1.13,2.65,0,*73
1508670244.29,38965,12.81,73456.5,2.81,0.55,2.05,0,*40
1508670245.5,38966,12.81,73454.5,2.83,0.59,2.01,0,*49
1508670246.75,38967,12.81,73452.5,2.81,0.67,2.05,0,*43
1508670248.0,38968,12.81,73454.8,2.81,0.75,2.13,0,*48
1508670249.25,38969,12.81,73454.3,2.81,0.67,2.13,0,*4A
1508670250.48,38970,12.81,73454.0,2.83,0.83,2.17,0,*4E
1508670251.73,38971,12.81,73454.5,2.81,0.87,2.21,0,*4C
1508670252.96,38972,12.81,73452.8,2.83,0.95,2.25,0,*4A
1508670254.18,38973,12.81,73454.0,2.83,0.71,2.13,0,*44
1508670255.4,38974,12.81,73452.0,2.83,0.71,2.01,0,*40
1508670256.62,38975,12.81,73452.3,2.83,0.79,1.89,0,*4A
1508670257.83,38976,12.81,73454.3,2.83,0.55,1.75,0,*44
1508670259.05,38977,12.81,73454.3,2.83,0.83,2.09,0,*46
1508670260.26,38978,12.81,73458.5,2.83,1.05,2.25,0,*78
1508670261.49,38979,12.81,73454.3,2.83,0.91,2.09,0,*4B
1508670262.71,38980,12.81,73452.5,2.83,0.67,1.85,0,*43
1508670263.96,38981,12.81,73458.0,2.81,0.67,1.85,0,*40
1508670265.17,38982,12.81,73456.0,2.83,0.51,1.67,0,*48
1508670266.37,38983,12.81,73452.8,2.83,0.59,1.75,0,*42
1508670267.62,38984,12.81,73456.0,2.81,0.47,1.51,0,*4E
1508670268.84,38985,12.81,73458.0,2.83,0.29,1.51,0,*45
1508670270.09,38986,12.81,73456.0,2.81,0.13,1.37,0,*4D
1508670271.33,38987,12.81,73452.8,2.81,0.25,1.47,0,*4E
1508670272.57,38988,12.81,73454.8,2.81,0.29,1.59,0,*42
1508670273.82,38989,12.81,73460.0,2.81,0.47,1.71,0,*41
1508670275.08,38990,12.81,73456.5,2.81,0.87,2.09,0,*49
1508670276.32,38991,12.81,73458.8,2.81,0.75,1.97,0,*41
1508670277.55,38992,12.81,73458.3,2.81,0.51,1.75,0,*48
1508670278.78,38993,12.81,73456.5,2.81,0.55,1.75,0,*4D
1508670280.03,38994,12.81,73458.0,2.81,0.37,1.51,0,*48
1508670281.27,38995,12.81,73452.0,2.81,0.37,1.51,0,*49
1508670282.49,38996,12.81,73454.3,2.81,0.01,1.25,0,*7C
1508670283.69,38997,12.81,73454.8,2.79,0.05,1.29,0,*72
1508670284.9,38998,12.81,73454.0,2.75,0.25,1.47,0,*4B
1508670286.12,38999,12.81,73450.8,2.79,0.25,1.47,0,*46
1508670287.34,39000,12.81,73448.3,2.75,0.33,1.43,0,*41
1508670288.55,39001,12.81,73452.0,2.75,0.33,1.43,0,*40
1508670289.78,39002,12.81,73452.3,2.75,0.21,1.37,0,*43
1508670290.99,39003,12.81,73448.5,2.75,0.13,1.43,0,*40
1508670292.24,39004,12.81,73454.0,2.73,0.17,1.33,0,*42
1508670293.44,39005,12.81,73454.3,2.71,-0.69,0.41,0,*51
1508670294.68,39006,12.81,73450.5,2.73,-0.81,0.21,0,*50
1508670295.88,39007,12.81,73448.5,2.71,-0.53,0.47,0,*5C
1508670297.09,39008,12.75,73444.5,2.69,-0.11,1.01,0,*6F
1508670298.33,39009,12.81,73450.0,2.69,0.13,1.25,0,*47
1508670299.58,39010,12.81,73450.8,2.69,-0.23,0.87,0,*58
1508670300.83,39011,12.81,73450.5,2.67,-0.23,0.87,0,*57
1508670302.03,39012,12.81,73452.0,2.67,-0.07,1.01,0,*5D
1508670303.25,39013,12.81,73450.0,2.67,-0.19,0.87,0,*5C
1508670304.45,39014,12.81,73454.3,2.65,-0.45,0.63,0,*5A
1508670305.67,39015,12.81,73454.0,2.65,0.13,1.21,0,*42
1508670306.88,39016,12.81,73448.8,2.65,0.41,1.47,0,*46
1508670308.1,39017,12.81,73450.0,2.65,0.51,1.67,0,*44
1508670309.32,39018,12.81,73450.0,2.65,0.59,1.71,0,*44
1508670310.53,39019,12.81,73450.0,2.65,0.75,1.89,0,*4C
1508670311.72,39020,12.81,73450.3,2.65,0.63,1.83,0,*4B
1508670312.94,39021,12.81,73450.8,2.65,0.41,1.55,0,*41
1508670314.16,39022,12.81,73452.0,2.65,0.25,1.43,0,*47
1508670315.38,39023,12.81,73452.8,2.63,-0.29,0.91,0,*5F
1508670316.58,39024,12.81,73452.8,2.65,-0.53,0.51,0,*5F
1508670317.8,39025,12.81,73452.5,2.65,-0.85,0.37,0,*55
1508670319.0,39026,12.81,73452.8,2.63,-0.15,1.01,0,*6D
1508670320.2,39027,12.81,73454.0,2.63,0.33,1.41,0,*41
1508670321.42,39028,12.81,73456.0,2.61,0.17,1.21,0,*4C
1508670322.63,39029,12.81,73452.0,2.61,0.37,1.55,0,*4C
1508670323.83,39030,12.81,73458.3,2.61,0.55,1.79,0,*4E
1508670325.04,39031,12.81,73454.0,2.61,0.83,1.89,0,*4B
1508670326.28,39032,12.81,73450.0,2.63,0.71,1.89,0,*47
1508670327.47,39033,12.81,73456.0,2.65,0.59,1.79,0,*45
1508670328.69,39034,12.81,73458.0,2.63,-0.07,1.09,0,*55
1508670329.93,39035,12.81,73452.3,2.63,0.17,1.29,0,*4A
1508670331.13,39036,12.81,73450.0,2.63,0.33,1.41,0,*41
1508670332.35,39037,12.81,73450.5,2.61,-0.27,0.83,0,*55
1508670333.54,39038,12.75,73448.0,2.61,-0.29,0.95,0,*53
1508670334.74,39039,12.81,73452.5,2.59,-0.19,0.97,0,*58
1508670335.98,39040,12.81,73450.3,2.59,0.29,1.51,0,*43
1508670337.17,39041,12.81,73452.5,2.61,0.09,1.33,0,*7F
1508670338.4,39042,12.81,73454.3,2.59,-0.23,1.01,0,*63
1508670339.61,39043,12.81,73448.0,2.57,0.13,1.37,0,*47
1508670340.84,39044,12.81,73446.3,2.59,-0.41,0.79,0,*5F
1508670342.03,39045,12.81,73448.3,2.59,-0.29,1.01,0,*6E
1508670343.23,39046,12.81,73450.3,2.57,-0.53,0.63,0,*5B
1508670344.43,39047,12.81,73448.8,2.53,-0.37,0.83,0,*52
1508670345.62,39048,12.75,73446.0,2.57,0.09,1.25,0,*74
1508670346.84,39049,12.81,73450.3,2.53,0.41,1.67,0,*4B
1508670348.03,39050,12.81,73452.3,2.57,0.67,1.83,0,*49
1508670349.24,39051,12.81,73454.5,2.57,0.41,1.71,0,*41
1508670350.43,39052,12.81,73450.0,2.57,0.05,1.17,0,*72
1508670351.61,39053,12.81,73448.3,2.57,-0.11,1.01,0,*6C
1508670352.8,39054,12.81,73448.3,2.57,0.05,1.13,0,*70
1508670353.99,39055,12.81,73448.0,2.53,0.01,1.13,0,*71
1508670355.2,39056,12.81,73446.5,2.53,-0.11,1.09,0,*65
1508670356.39,39057,12.81,73446.5,2.53,0.01,1.13,0,*73
1508670357.6,39058,12.75,73444.0,2.53,-0.23,0.95,0,*5E
1508670358.82,39059,12.81,73444.8,2.53,-0.27,0.95,0,*5B
1508670360.04,39060,12.81,73448.5,2.51,-0.19,0.95,0,*5E
1508670361.24,39061,12.81,73446.3,2.51,-0.19,0.97,0,*5D
1508670362.46,39062,12.81,73446.0,2.49,-0.27,0.95,0,*58
1508670363.63,39063,12.81,73448.0,2.49,-0.07,1.05,0,*53
1508670364.83,39064,12.81,73440.5,2.49,-0.03,1.17,0,*53
1508670366.03,39065,12.81,73440.3,2.49,-0.37,0.83,0,*59
1508670367.24,39066,12.81,73446.0,2.49,-0.41,0.83,0,*5B
1508670368.47,39067,12.81,73444.5,2.47,-0.45,0.87,0,*54
1508670369.69,39068,12.81,73440.8,2.47,-0.65,0.67,0,*57
1508670370.9,39069,12.81,73444.3,2.45,-0.93,0.33,0,*5C
1508670372.1,39070,12.81,73440.5,2.45,-0.57,0.79,0,*52
1508670373.33,39071,12.81,73446.3,2.47,-0.45,0.91,0,*54
1508670374.53,39072,12.81,73442.8,2.45,-0.53,0.87,0,*55
1508670375.74,39073,12.81,73442.0,2.45,-0.45,0.91,0,*54
1508670376.94,39074,12.81,73442.3,2.47,-0.45,1.01,0,*69
1508670378.17,39075,12.81,73446.5,2.43,-0.57,0.87,0,*50
1508670379.37,39076,12.81,73446.5,2.45,-0.65,0.95,0,*57
1508670380.6,39077,12.81,73446.3,2.43,-0.77,0.83,0,*54
1508670381.81,39078,12.81,73446.0,2.41,-0.77,0.91,0,*5A
1508670383.07,39079,12.81,73448.0,2.43,-1.13,0.63,0,*67
1508670384.33,39080,12.81,73444.5,2.43,-0.97,0.87,0,*56
1508670385.53,39081,12.81,73446.5,2.41,-0.89,0.97,0,*5B
1508670386.77,39082,12.81,73448.0,2.41,-1.13,0.87,0,*6B
1508670388.03,39083,12.81,73444.0,2.43,-0.85,1.13,0,*6A
1508670389.23,39084,12.81,73448.0,2.41,-0.85,0.97,0,*52
1508670390.43,39085,12.81,73444.8,2.41,-0.89,1.01,0,*61
1508670391.67,39086,12.81,73440.8,2.43,-1.13,0.97,0,*6C
1508670392.87,39087,12.81,73446.5,2.41,-1.09,0.97,0,*64
1508670394.13,39088,12.81,73444.0,2.43,-0.85,1.33,0,*63
1508670395.33,39089,12.81,73442.0,2.41,-0.61,1.47,0,*69
1508670396.6,39090,12.81,73442.0,2.43,-1.13,0.91,0,*6D
1508670397.81,39091,12.81,73442.5,2.41,-1.99,0.09,0,*5D
1508670399.04,39092,12.81,73448.8,2.39,-1.51,0.47,0,*6F
1508670400.29,39093,12.81,73450.0,2.39,-0.89,1.09,0,*61
1508670401.52,39094,12.81,73444.3,2.39,-0.77,1.29,0,*65
1508670402.7,39095,12.81,73440.3,2.41,-0.15,1.75,0,*66
1508670403.88,39096,12.81,73444.8,2.41,-0.03,1.83,0,*5B
1508670405.08,39097,12.81,73446.0,2.41,0.41,2.31,0,*4B
1508670406.3,39098,12.81,73448.5,2.45,0.55,2.43,0,*40
1508670407.54,39099,12.81,73448.5,2.43,-0.49,1.37,0,*67
1508670408.74,39100,12.81,73450.8,2.41,-0.69,1.25,0,*65
1508670410.01,39101,12.81,73450.3,2.43,-0.85,1.21,0,*60
1508670411.25,39102,12.81,73448.8,2.43,-1.01,1.01,0,*5C
1508670412.5,39103,12.81,73444.8,2.43,-0.85,1.13,0,*63
1508670413.73,39104,12.81,73446.0,2.43,-0.49,1.55,0,*66
1508670414.99,39105,12.81,73450.5,2.43,-0.85,1.09,0,*6E
1508670416.23,39106,12.81,73448.5,2.43,-1.01,1.01,0,*58
1508670417.44,39107,12.81,73440.8,2.41,-0.37,1.67,0,*6F
1508670418.67,39108,12.81,73446.3,2.43,-0.33,1.67,0,*66
1508670419.9,39109,12.81,73448.3,2.43,-0.45,1.47,0,*64
1508670421.1,39110,12.81,73448.8,2.41,-0.45,1.55,0,*6D
1508670422.32,39111,12.81,73448.3,2.43,0.09,1.97,0,*75
1508670423.56,39112,12.81,73450.8,2.43,-0.37,1.55,0,*68
1508670424.81,39113,12.81,73450.5,2.47,-0.97,0.91,0,*5E
1508670426.07,39114,12.81,73448.3,2.43,-1.43,0.25,0,*6A
1508670427.31,39115,12.81,73442.8,2.43,-1.71,0.13,0,*6F
1508670428.5,39116,12.81,73448.0,2.41,-2.87,-1.25,0,*7D
1508670429.71,39117,12.81,73448.3,2.39,-1.29,0.43,0,*68
1508670430.89,39118,12.81,73450.3,2.37,-0.77,1.05,0,*60
1508670432.11,39119,12.81,73448.0,2.39,-0.07,1.71,0,*5B
1508670433.36,39120,12.81,73448.8,2.39,-0.27,1.63,0,*60
1508670434.58,39121,12.81,73450.5,2.39,-0.61,1.29,0,*6D
1508670435.81,39122,12.81,73448.5,2.39,-0.77,1.09,0,*6B
1508670437.03,39123,12.81,73446.8,2.39,-0.49,1.43,0,*69
1508670438.25,39124,12.81,73454.3,2.39,-0.29,1.63,0,*6A
1508670439.47,39125,12.81,73454.3,2.39,-0.37,1.55,0,*61
1508670440.68,39126,12.81,73452.0,2.41,-0.15,1.67,0,*6C
1508670441.91,39127,12.81,73452.0,2.41,-0.27,1.55,0,*6D
1508670443.14,39128,12.81,73454.5,2.41,-0.23,1.55,0,*66
1508670444.34,39129,12.81,73452.5,2.41,0.09,1.85,0,*7F
1508670445.57,39130,12.81,73448.8,2.41,0.29,2.09,0,*42
1508670446.79,39131,12.81,73450.5,2.41,0.25,2.17,0,*40
1508670448.0,39132,12.81,73456.3,2.43,-0.03,1.75,0,*5F
1508670449.23,39133,12.81,73450.3,2.43,-0.33,1.47,0,*6C
1508670450.46,39134,12.81,73450.3,2.43,-0.73,1.25,0,*6B
1508670451.69,39135,12.81,73450.5,2.43,-0.61,1.25,0,*69
1508670452.89,39136,12.81,73448.0,2.41,-0.61,1.25,0,*68
1508670454.12,39137,12.81,73448.8,2.43,-0.45,1.33,0,*6A
1508670455.39,39138,12.81,73450.5,2.43,-1.01,0.71,0,*63
1508670456.56,39139,12.81,73448.5,2.41,-0.69,0.97,0,*57
1508670457.77,39140,12.81,73448.0,2.41,-0.37,1.37,0,*69
1508670459.0,39141,12.81,73450.3,2.41,-0.23,1.67,0,*68
1508670460.23,39142,12.81,73448.8,2.39,-0.29,1.33,0,*6F
1508670461.45,39143,12.81,73450.5,2.39,-0.29,1.33,0,*6E
1508670462.66,39144,12.81,73446.8,2.41,-0.33,1.37,0,*69
1508670463.84,39145,12.81,73450.0,2.41,-0.57,0.97,0,*51
1508670465.07,39146,12.81,73444.8,2.41,-0.27,1.37,0,*6E
1508670466.27,39147,12.81,73450.0,2.41,0.09,1.67,0,*7B
1508670467.5,39148,12.81,73448.5,2.41,-0.27,1.09,0,*6D
1508670468.68,39149,12.81,73450.5,2.41,-0.57,1.01,0,*63
1508670469.92,39150,12.81,73452.8,2.39,0.13,1.89,0,*49
1508670471.11,39151,12.81,73458.3,2.39,0.05,1.79,0,*70
1508670472.31,39152,12.81,73456.3,2.41,-0.45,1.47,0,*68
1508670473.55,39153,12.81,73454.0,2.41,-0.85,1.09,0,*6F
1508670474.75,39154,12.81,73454.0,2.41,-0.57,1.47,0,*6D
1508670475.98,39155,12.81,73450.0,2.39,-0.73,1.29,0,*6D
1508670477.19,39156,12.81,73446.0,2.41,-0.57,1.55,0,*6C
1508670478.42,39157,12.81,73446.5,2.43,-0.33,1.71,0,*6B
1508670479.64,39158,12.81,73444.5,2.39,-0.49,1.29,0,*69
1508670480.87,39159,12.81,73440.5,2.39,-0.65,1.09,0,*64
1508670482.1,39160,12.81,73446.3,2.39,-0.53,1.21,0,*61
1508670483.32,39161,12.81,73442.3,2.39,-0.61,1.17,0,*64
1508670484.53,39162,12.81,73440.3,2.37,-0.81,0.83,0,*5B
1508670485.76,39163,12.81,73440.8,2.39,-0.81,0.95,0,*53
1508670486.97,39164,12.81,73444.3,2.37,-0.81,0.91,0,*5E
1508670488.19,39165,12.81,73450.8,2.39,-0.65,0.95,0,*5F
1508670489.4,39166,12.81,73448.5,2.37,-0.69,1.13,0,*61
1508670490.6,39167,12.81,73450.0,2.37,-0.57,1.17,0,*69
1508670491.81,39168,12.81,73450.8,2.37,-0.53,1.29,0,*6F
1508670493.03,39169,12.81,73448.5,2.37,-0.93,0.79,0,*56
1508670494.24,39170,12.81,73450.8,2.37,-0.77,0.91,0,*52
1508670495.47,39171,12.81,73452.0,2.35,-0.93,0.75,0,*51
1508670496.66,39172,12.81,73452.3,2.33,-0.61,0.97,0,*55
1508670497.89,39173,12.81,73448.3,2.33,-0.45,1.09,0,*64
1508670499.14,39174,12.81,73448.5,2.33,-1.01,0.41,0,*6F
1508670500.35,39175,12.81,73448.0,2.35,-0.53,0.91,0,*53
1508670501.57,39176,12.81,73452.5,2.33,-0.03,1.47,0,*59
1508670502.8,39177,12.81,73454.5,2.33,-0.37,1.13,0,*6E
1508670504.01,39178,12.81,73454.8,2.33,-0.61,0.79,0,*5F
1508670505.22,39179,12.81,73454.8,2.33,0.01,1.43,0,*7D
1508670506.44,39180,12.81,73452.8,2.33,-0.03,1.43,0,*54
1508670507.67,39181,12.81,73452.5,2.35,-0.23,1.17,0,*60
1508670508.88,39182,12.81,73452.3,2.33,0.01,1.55,0,*7E
1508670510.09,39183,12.81,73452.5,2.35,0.17,1.63,0,*4B
1508670511.28,39184,12.81,73452.5,2.35,0.43,1.85,0,*45
1508670512.48,39185,12.81,73452.5,2.35,0.33,1.79,0,*40
1508670513.7,39186,12.81,73452.3,2.35,0.83,2.25,0,*42
1508670514.89,39187,12.81,73448.5,2.35,0.83,2.31,0,*46
1508670516.11,39188,12.81,73452.3,2.37,0.29,1.67,0,*4B
1508670517.33,39189,12.81,73448.5,2.37,0.41,1.67,0,*44
1508670518.52,39190,12.81,73450.8,2.39,0.43,1.83,0,*4A
1508670519.74,39191,12.81,73446.8,2.37,0.41,1.63,0,*49
1508670520.94,39192,12.81,73450.0,2.39,-0.37,1.05,0,*68
1508670522.15,39193,12.81,73450.0,2.37,-0.57,0.79,0,*5B
1508670523.32,39194,12.81,73450.0,2.37,-0.29,1.05,0,*6F
1508670524.54,39195,12.81,73458.3,2.35,0.21,1.63,0,*49
1508670525.7,39196,12.81,73452.5,2.35,0.43,1.79,0,*45
1508670526.94,39197,12.81,73452.5,2.33,0.13,1.47,0,*4A